[[{"header":{"parameterUnit":"m.s-1","parameterCategory":1,"la1":30.2991,"la2":30.254,"lo1":-89.0895,"lo2":-89.0444,"dy":0.0017,"dx":0.0017,"nx":28,"ny":28,"refTime":"2024-07-31T03:00:00:Z","depth":0,"parameterNumber":2,"parameterNumberName":"U-component_of_WINDS"},"data":[0,0,0,0,0,0,0,0,0,0,0,0,0,0,0,0,0,0,0,0,0,0,0,0,0,0,0,0,0,0,0,0,0,0,0,0,0,0,0,0,0,0,0,0,0,0,0,0,0,0,0,0,0,0,0,0,0,0,1.2682,1.2683,0,1.2749,1.275,1.2751,1.2737,1.2735,1.2734,1.2733,1.2802,1.2805,1.2808,0,0,0,0,0,0,0,0,0,0,0,0,0,1.2541,1.2543,1.2682,1.2683,1.2684,1.2749,1.275,1.2751,1.2737,1.2735,1.2734,1.2732,1.2801,1.2804,1.2808,0,0,0,0,0,0,0,0,0,0,0,0,0,1.2604,1.2544,1.2682,1.2685,1.2686,1.2749,1.275,1.2751,1.2737,1.2735,1.2733,1.2732,1.28,1.2804,1.2809,1.2873,0,0,1.2822,1.2824,0,0,0,0,0,0,0,0,1.2601,1.261,1.2684,1.2685,1.2686,1.2733,1.2725,1.2792,1.2738,1.2718,1.2733,1.2731,1.278,1.2786,1.2803,1.2877,1.288,1.2823,1.2825,1.2827,1.2829,0,0,0,0,0,0,0,1.2596,1.2607,1.2709,1.2685,1.2686,1.2682,1.2689,1.2738,1.2759,1.2719,1.2718,1.2726,1.2781,1.2799,1.2805,1.2881,1.2823,1.2827,1.2829,1.2831,1.3008,1.301,0,0,0,0,0,0,1.2591,1.2603,1.2707,1.2711,1.2638,1.2686,1.2694,1.2719,1.2758,1.2762,1.2728,1.2726,1.2792,1.2799,1.2807,1.2884,1.2827,1.2831,1.2834,1.3006,1.3009,1.3011,0,0,0,0,0,0,1.2588,1.26,1.2704,1.2657,1.267,1.2691,1.2719,1.2722,1.274,1.2765,1.2768,1.2743,1.2791,1.2801,1.2856,1.2886,1.2833,1.2838,1.3004,1.3007,1.301,1.3038,0,0,0,0,0,0,1.2584,1.2599,1.2625,1.2657,1.2672,1.2753,1.2721,1.2724,1.2748,1.2745,1.2779,1.2783,1.279,1.285,1.2861,1.2891,1.2841,1.3001,1.3005,1.3009,1.3035,1.3042,1.3048,0,0,0,0,0,1.2579,1.2631,1.2626,1.2639,1.2704,1.2754,1.2763,1.2769,1.275,1.2775,1.2791,1.2782,1.2881,1.2856,1.2868,1.29,1.2999,1.3004,1.3008,1.3032,1.3041,1.3048,0,0,0,0,0,0,1.2602,1.2635,1.263,1.2694,1.2722,1.2752,1.2784,1.2779,1.2812,1.2809,1.2815,1.2823,1.288,1.2896,1.2867,1.2963,1.2937,1.2944,1.2951,1.2959,1.2966,1.2961,1.2845,0,0,0,0,0,1.2614,1.2652,1.2679,1.2733,1.2747,1.2763,1.2785,1.2788,1.2816,1.2828,1.2848,1.2876,1.2913,1.2937,1.2973,1.3037,1.3044,1.3065,1.3072,1.3077,1.3083,1.3116,1.3126,1.3026,1.3026,1.3025,0,0,1.264,1.2663,1.2687,1.2738,1.276,1.2798,1.2773,1.2816,1.2844,1.2835,1.2888,1.2903,1.2935,1.2994,1.3022,1.3009,1.3112,1.3083,1.3087,1.309,1.3122,1.3131,1.314,1.3029,1.3028,1.3028,0,0,1.2707,1.2729,1.2775,1.2797,1.2829,1.2839,1.285,1.2881,1.2891,1.2944,1.2937,1.2971,1.3035,1.3057,1.3077,1.315,1.3143,1.3162,1.3196,1.3228,1.3236,1.3243,1.3267,1.3276,1.3168,1.3168,1.3168,0,1.2735,1.2794,1.28,1.2842,1.2864,1.2857,1.2902,1.2923,1.2966,1.2981,1.2966,1.3045,1.3066,1.313,1.3147,1.3164,1.3176,1.3158,1.3234,1.3241,1.3248,1.3271,1.3281,1.317,1.3169,1.3169,1.3169,0,1.2826,1.2866,1.2899,1.294,1.2966,1.301,1.3021,1.3047,1.3047,1.3058,1.3111,1.3136,1.3175,1.3191,1.3192,1.3254,1.3245,1.3233,1.3206,1.3259,1.3281,1.3291,1.3172,1.3172,1.3171,1.3171,0,0,1.291,1.2951,1.2963,1.298,1.3015,1.3046,1.3089,1.3127,1.3148,1.3177,1.3212,1.3266,1.3254,1.3276,1.3279,1.3308,1.3361,1.3291,1.3292,1.3302,1.343,1.3438,1.3449,1.3357,1.3359,1.336,1.3427,0,1.2978,1.3054,1.306,1.3128,1.3164,1.3157,1.3194,1.3219,1.323,1.3262,1.3275,1.3312,1.3294,1.3307,1.3335,1.3349,1.3387,1.3344,1.3389,1.3391,1.338,1.346,1.347,1.3531,1.3435,1.3437,1.3438,0,1.3069,1.31,1.3171,1.3199,1.3214,1.3248,1.3282,1.3313,1.334,1.3346,1.337,1.3369,1.3412,1.3384,1.3443,1.3414,1.3432,1.3442,1.3444,1.3448,1.3417,1.3465,1.3551,1.356,1.3452,1.3451,1.345,0,1.3121,1.318,1.323,1.3246,1.3279,1.3302,1.3317,1.3343,1.3365,1.3394,1.3408,1.3443,1.3462,1.3489,1.3496,1.3476,1.3554,1.3528,1.3559,1.3559,1.3576,1.3575,1.3665,1.359,1.359,1.3589,1.3589,0,1.3196,1.324,1.3254,1.3284,1.3332,1.3338,1.3385,1.3399,1.3421,1.3454,1.345,1.348,1.3489,1.3521,1.3527,1.3573,1.3583,1.3588,1.3589,1.3588,1.3587,1.3599,1.3595,1.3592,1.3591,1.3591,1.359,0,1.3262,1.3273,1.3327,1.3354,1.3361,1.3395,1.3418,1.3447,1.3457,1.3498,1.3508,1.3524,1.3561,1.3571,1.3616,1.362,1.3674,1.3672,1.3665,1.3665,1.3695,1.3692,1.3796,1.381,1.3727,1.3727,1.3728,0,1.3309,1.3342,1.3372,1.3393,1.3409,1.3444,1.3466,1.3472,1.3495,1.3527,1.3552,1.3588,1.3617,1.3677,1.3692,1.3726,1.3723,1.3758,1.3728,1.3725,1.3722,1.3719,1.3722,1.3763,1.3764,1.3764,1.3765,0,1.3391,1.3394,1.3426,1.3459,1.3485,1.3511,1.3537,1.3554,1.3564,1.359,1.3627,1.365,1.3694,1.373,1.3764,1.3778,1.3773,1.3774,1.3783,1.3782,1.3775,1.3777,1.3679,1.3772,1.3771,1.377,1.377,1.377,1.3448,1.3476,1.3501,1.3536,1.3555,1.3579,1.3606,1.3619,1.3651,1.3687,1.3689,1.3729,1.3754,1.3798,1.3815,1.3846,1.3836,1.3849,1.3852,1.3855,1.3857,1.3771,1.3852,1.3852,1.3852,1.3852,1.3852,0,1.3528,1.3543,1.3575,1.361,1.3637,1.3629,1.3656,1.3679,1.3714,1.3738,1.3766,1.3808,1.3842,1.386,1.3893,1.3914,1.3913,1.3923,1.3921,1.3924,1.3865,1.3853,1.3924,1.3924,1.3924,1.3924,1.3924,1.3924,1.3572,1.3619,1.3625,1.3681,1.3696,1.3735,1.3751,1.3772,1.379,1.3837,1.3865,1.3876,1.3897,1.3931,1.3962,1.3966,1.3978,1.3989,1.3992,1.3936,1.3929,1.3921,1.391,1.3992,1.3992,1.4048,1.4049,1.4049]},{"header":{"parameterUnit":"m.s-1","parameterCategory":1,"la1":30.2991,"la2":30.254,"lo1":-89.0895,"lo2":-89.0444,"dy":0.0017,"dx":0.0017,"nx":28,"ny":28,"refTime":"2024-07-31T03:00:00:Z","depth":0,"parameterNumber":3,"parameterNumberName":"V-component_of_WINDS"},"data":[0,0,0,0,0,0,0,0,0,0,0,0,0,0,0,0,0,0,0,0,0,0,0,0,0,0,0,0,0,0,0,0,0,0,0,0,0,0,0,0,0,0,0,0,0,0,0,0,0,0,0,0,0,0,0,0,0,0,3.0585,3.0585,0,3.0583,3.0583,3.0583,3.0518,3.0516,3.0515,3.0513,3.0511,3.0512,3.0514,0,0,0,0,0,0,0,0,0,0,0,0,0,3.0533,3.0534,3.0585,3.0585,3.0585,3.0583,3.0583,3.0583,3.0518,3.0516,3.0514,3.0512,3.051,3.0512,3.0514,0,0,0,0,0,0,0,0,0,0,0,0,0,3.0545,3.0534,3.0585,3.0553,3.055,3.0583,3.0583,3.0583,3.0519,3.0516,3.0514,3.0511,3.051,3.0512,3.0514,3.0578,0,0,3.0521,3.0522,0,0,0,0,0,0,0,0,3.0545,3.0547,3.0557,3.0555,3.0552,3.0548,3.0563,3.0581,3.0519,3.053,3.0513,3.051,3.0525,3.0526,3.0531,3.0578,3.0578,3.0521,3.0523,3.0524,3.0524,0,0,0,0,0,0,0,3.0544,3.0547,3.0584,3.0558,3.0554,3.0538,3.0537,3.0566,3.0542,3.0529,3.0525,3.0525,3.0523,3.0529,3.0531,3.0578,3.0521,3.0523,3.0525,3.0525,3.0675,3.0678,0,0,0,0,0,0,3.0548,3.0547,3.0584,3.0584,3.0542,3.0541,3.054,3.0552,3.0541,3.0537,3.0527,3.0522,3.0527,3.0528,3.053,3.0603,3.0524,3.0526,3.0527,3.0673,3.0676,3.0679,0,0,0,0,0,0,3.0547,3.0552,3.0584,3.0564,3.0567,3.0544,3.0558,3.0553,3.0559,3.054,3.0535,3.0538,3.0525,3.0527,3.0566,3.0602,3.0527,3.0529,3.0669,3.0674,3.0677,3.075,0,0,0,0,0,0,3.0546,3.0552,3.0576,3.0565,3.0568,3.0621,3.0561,3.0555,3.0563,3.0556,3.0549,3.0545,3.0523,3.0563,3.0569,3.0604,3.053,3.0666,3.0671,3.0676,3.0744,3.0756,3.0766,0,0,0,0,0,3.0544,3.0597,3.0578,3.0583,3.0598,3.0623,3.0625,3.0598,3.0566,3.059,3.0578,3.0545,3.0598,3.0568,3.0573,3.061,3.0664,3.067,3.0676,3.074,3.0754,3.0766,0,0,0,0,0,0,3.0614,3.0595,3.0573,3.0625,3.0626,3.0612,3.0642,3.0614,3.0625,3.0618,3.0584,3.0583,3.0627,3.0622,3.059,3.067,3.0625,3.0632,3.0672,3.0685,3.0696,3.0696,3.0532,0,0,0,0,0,3.0635,3.0656,3.0639,3.0686,3.0688,3.0665,3.0675,3.0654,3.0654,3.0654,3.0644,3.0645,3.0661,3.0673,3.0687,3.0744,3.074,3.0771,3.0782,3.0791,3.0798,3.0825,3.0839,3.0698,3.0698,3.0698,0,0,3.0679,3.0672,3.0688,3.07,3.0698,3.0721,3.0666,3.0692,3.0708,3.0658,3.0694,3.0687,3.0686,3.0733,3.0754,3.073,3.0836,3.0799,3.0806,3.0807,3.0833,3.0846,3.0858,3.0702,3.0701,3.0701,0,0,3.0771,3.0769,3.0806,3.0805,3.0803,3.0787,3.0797,3.0787,3.078,3.0815,3.0777,3.0796,3.0826,3.0826,3.083,3.092,3.089,3.0926,3.0982,3.101,3.1021,3.103,3.1062,3.1073,3.0932,3.0933,3.0933,0,3.0827,3.0859,3.0829,3.0858,3.0864,3.0819,3.0856,3.0857,3.086,3.0865,3.0839,3.0874,3.087,3.0916,3.0938,3.0943,3.0952,3.0926,3.1022,3.1031,3.104,3.1069,3.1081,3.0937,3.0936,3.0936,3.0936,0,3.0926,3.0949,3.098,3.0983,3.0993,3.1026,3.1001,3.1014,3.0992,3.0979,3.1015,3.1008,3.102,3.1029,3.1009,3.1072,3.1058,3.1028,3.0981,3.1058,3.1084,3.1096,3.0943,3.0941,3.094,3.0939,0,0,3.1063,3.1048,3.1059,3.1059,3.1053,3.107,3.1101,3.1111,3.1123,3.1126,3.115,3.1176,3.1147,3.1152,3.113,3.1155,3.1225,3.1121,3.112,3.114,3.1293,3.1316,3.1329,3.1206,3.1208,3.1209,3.1293,0,3.115,3.1201,3.1175,3.1229,3.1249,3.1206,3.1232,3.1231,3.1219,3.1234,3.1221,3.1239,3.1201,3.1203,3.1225,3.1212,3.1256,3.1206,3.1227,3.1228,3.1228,3.1343,3.1367,3.1447,3.1304,3.1305,3.1307,0,3.126,3.1266,3.1323,3.1311,3.1318,3.1343,3.1349,3.1365,3.1362,3.1351,3.1356,3.1329,3.1357,3.1312,3.135,3.1317,3.1324,3.1319,3.1322,3.1322,3.1272,3.1346,3.1471,3.1483,3.1323,3.1322,3.1321,0,3.1352,3.1375,3.1411,3.1413,3.14,3.1418,3.1414,3.1409,3.1416,3.1422,3.1427,3.1437,3.1442,3.145,3.1425,3.1395,3.1467,3.142,3.1458,3.1459,3.1475,3.1474,3.1602,3.1481,3.1481,3.1481,3.1481,0,3.1452,3.1488,3.1452,3.1474,3.1512,3.1481,3.152,3.1511,3.1507,3.1526,3.149,3.1509,3.1476,3.1492,3.1473,3.1507,3.151,3.1502,3.1496,3.1504,3.1505,3.1508,3.1501,3.1484,3.1483,3.1483,3.1482,0,3.1561,3.1539,3.1575,3.156,3.1557,3.1585,3.1572,3.1592,3.1577,3.1602,3.1606,3.1583,3.16,3.1576,3.1591,3.1578,3.1624,3.1611,3.1625,3.1621,3.166,3.1656,3.1794,3.181,3.168,3.1681,3.1682,0,3.1626,3.1652,3.1639,3.1649,3.1647,3.1664,3.167,3.1641,3.165,3.1648,3.1668,3.1681,3.1689,3.1718,3.1702,3.1713,3.1698,3.1746,3.17,3.1707,3.1698,3.1696,3.1698,3.1755,3.1757,3.1758,3.1759,0,3.1743,3.173,3.1741,3.1749,3.1758,3.1763,3.1765,3.1775,3.1744,3.1756,3.1771,3.1778,3.1792,3.1805,3.1811,3.1806,3.1778,3.1774,3.1783,3.1791,3.1798,3.1793,3.1649,3.1771,3.177,3.1769,3.1768,3.1768,3.1831,3.1851,3.1845,3.1858,3.1856,3.1859,3.1876,3.1863,3.1875,3.1884,3.1865,3.1886,3.1881,3.1886,3.1885,3.19,3.1879,3.1893,3.1896,3.19,3.1905,3.1796,3.1901,3.1901,3.1901,3.19,3.19,0,3.1944,3.1938,3.1951,3.1954,3.1964,3.1936,3.1936,3.1947,3.1964,3.1963,3.1972,3.1989,3.2002,3.1987,3.1997,3.2011,3.1998,3.2015,3.2013,3.2012,3.1924,3.1914,3.2025,3.2025,3.2025,3.2025,3.2025,3.2025,3.2005,3.2037,3.2024,3.2055,3.2048,3.2067,3.2069,3.2071,3.2069,3.209,3.21,3.209,3.2083,3.2091,3.2101,3.2096,3.2101,3.2122,3.2113,3.2031,3.2018,3.2007,3.1997,3.2124,3.2124,3.2199,3.22,3.2201]}]]